| time (UTC) | temp F | wind direction | speed knots | gust knots | rain 1hr in | rain 24hr in | rain mn in | humidity % | barometer mb |
| 20260503051006 | 49 | 331 | 0.9 | 1.7 | 0.00 | 0.00 | 0.00 | 81 | 1012.5 |
| 20260503050602 | 50 | 329 | 0.9 | 1.7 | 0.00 | 0.00 | 0.00 | 80 | 1012.4 |
| 20260503050106 | 50 | 329 | 0.9 | 1.7 | 0.00 | 0.00 | 0.00 | 80 | 1012.5 |
| 20260503045508 | 50 | 327 | 0.9 | 1.7 | 0.00 | 0.00 | 0.00 | 80 | 1012.4 |
| 20260503045007 | 50 | 327 | 0.9 | 1.7 | 0.00 | 0.00 | 0.00 | 80 | 1012.4 |
| 20260503044603 | 50 | 327 | 0.9 | 1.7 | 0.00 | 0.00 | 0.00 | 80 | 1012.3 |
| 20260503044104 | 50 | 327 | 0.9 | 1.7 | 0.00 | 0.00 | 0.00 | 79 | 1012.4 |
| 20260503043503 | 51 | 335 | 0.0 | 1.7 | 0.00 | 0.00 | 0.00 | 79 | 1012.4 |
| 20260503043102 | 51 | 335 | 0.9 | 1.7 | 0.00 | 0.00 | 0.00 | 79 | 1012.3 |
| 20260503042502 | 52 | 335 | 0.9 | 1.7 | 0.00 | 0.00 | 0.00 | 79 | 1012.1 |
| 20260503042104 | 52 | 335 | 0.0 | 1.7 | 0.00 | 0.00 | 0.00 | 79 | 1012.2 |
| 20260503041503 | 52 | 335 | 0.9 | 2.6 | 0.00 | 0.00 | 0.00 | 78 | 1012.1 |
| 20260503041008 | 52 | 355 | 0.9 | 2.6 | 0.00 | 0.00 | 0.00 | 78 | 1012.1 |
| 20260503040509 | 52 | 5 | 0.9 | 1.7 | 0.00 | 0.00 | 0.00 | 78 | 1012.1 |
| 20260503040003 | 53 | 5 | 0.9 | 1.7 | 0.00 | 0.00 | 0.00 | 78 | 1012.1 |
| 20260503035603 | 53 | 5 | 0.9 | 1.7 | 0.00 | 0.00 | 0.00 | 78 | 1012.1 |
| 20260503035004 | 53 | 5 | 0.0 | 1.7 | 0.00 | 0.00 | 0.00 | 77 | 1012.0 |
| 20260503034615 | 53 | 5 | 0.0 | 1.7 | 0.00 | 0.00 | 0.00 | 77 | 1012.0 |
| 20260503034003 | 54 | 5 | 0.0 | 1.7 | 0.00 | 0.00 | 0.00 | 76 | 1011.9 |
| 20260503033605 | 54 | 5 | 0.9 | 1.7 | 0.00 | 0.00 | 0.00 | 76 | 1011.8 |
| 20260503033103 | 55 | 5 | 0.9 | 1.7 | 0.00 | 0.00 | 0.00 | 75 | 1011.8 |
| 20260503032603 | 55 | 5 | 0.9 | 1.7 | 0.00 | 0.00 | 0.00 | 73 | 1011.7 |
| 20260503032103 | 56 | 5 | 0.9 | 1.7 | 0.00 | 0.00 | 0.00 | 72 | 1011.7 |
| 20260503031503 | 57 | 5 | 0.0 | 0.9 | 0.00 | 0.00 | 0.00 | 70 | 1011.5 |
| 20260503031103 | 58 | 5 | 0.0 | 0.9 | 0.00 | 0.00 | 0.00 | 69 | 1011.4 |
| 20260503030502 | 59 | 5 | 0.0 | 1.7 | 0.00 | 0.00 | 0.00 | 68 | 1011.4 |
| 20260503030005 | 60 | 5 | 0.0 | 0.0 | 0.00 | 0.00 | 0.00 | 68 | 1011.4 |
| 20260503025606 | 60 | 5 | 0.0 | 0.0 | 0.00 | 0.00 | 0.00 | 67 | 1011.4 |
| 20260503025102 | 61 | 5 | 0.0 | 0.0 | 0.00 | 0.00 | 0.00 | 66 | 1011.4 |
| 20260503024603 | 62 | 9 | 0.0 | 0.0 | 0.00 | 0.00 | 0.00 | 67 | 1011.3 |
| 20260503024008 | 63 | 9 | 0.0 | 0.0 | 0.00 | 0.00 | 0.00 | 63 | 1011.4 |
| 20260503023603 | 64 | 9 | 0.0 | 0.0 | 0.00 | 0.00 | 0.00 | 64 | 1011.3 |
| 20260503023105 | 64 | 9 | 0.0 | 0.0 | 0.00 | 0.00 | 0.00 | 61 | 1011.3 |
| 20260503022503 | 65 | 9 | 0.0 | 0.9 | 0.00 | 0.00 | 0.00 | 59 | 1011.2 |
| 20260503022002 | 66 | 9 | 0.0 | 0.9 | 0.00 | 0.00 | 0.00 | 59 | 1011.2 |
| 20260503021013 | 67 | 9 | 0.0 | 0.0 | 0.00 | 0.00 | 0.00 | 56 | 1011.2 |
| 20260503020503 | 68 | 9 | 0.0 | 0.0 | 0.00 | 0.00 | 0.00 | 56 | 1011.2 |
| 20260503015604 | 69 | 9 | 0.0 | 0.9 | 0.00 | 0.00 | 0.00 | 54 | 1011.1 |
| 20260503015002 | 69 | 5 | 0.0 | 0.9 | 0.00 | 0.00 | 0.00 | 53 | 1011.2 |
| 20260503014507 | 70 | 5 | 0.0 | 0.9 | 0.00 | 0.00 | 0.00 | 50 | 1011.1 |
| 20260503013604 | 71 | 5 | 0.0 | 1.7 | 0.00 | 0.00 | 0.00 | 45 | 1011.1 |
| 20260503013003 | 71 | 5 | 0.0 | 3.5 | 0.00 | 0.00 | 0.00 | 41 | 1011.1 |
| 20260503012504 | 71 | 5 | 0.9 | 7.8 | 0.00 | 0.00 | 0.00 | 37 | 1011.1 |
| 20260503012103 | 72 | 17 | 2.6 | 7.8 | 0.00 | 0.00 | 0.00 | 35 | 1011.1 |
| 20260503011503 | 73 | 321 | 0.9 | 1.7 | 0.00 | 0.00 | 0.00 | 35 | 1011.1 |
| 20260503011006 | 73 | 248 | 0.0 | 4.3 | 0.00 | 0.00 | 0.00 | 36 | 1011.0 |
| 20260503010602 | 74 | 236 | 0.0 | 4.3 | 0.00 | 0.00 | 0.00 | 34 | 1011.1 |
| 20260503010123 | 74 | 186 | 0.9 | 4.3 | 0.00 | 0.00 | 0.00 | 32 | 1011.1 |
| 20260503005504 | 75 | 178 | 0.9 | 3.5 | 0.00 | 0.00 | 0.00 | 32 | 1011.2 |
| 20260503005003 | 76 | 188 | 0.9 | 2.6 | 0.00 | 0.00 | 0.00 | 32 | 1011.3 |
| 20260503004607 | 76 | 183 | 0.9 | 3.5 | 0.00 | 0.00 | 0.00 | 31 | 1011.3 |
| 20260503004002 | 76 | 194 | 0.0 | 5.2 | 0.00 | 0.00 | 0.00 | 30 | 1011.3 |
| 20260503003603 | 76 | 183 | 0.9 | 3.5 | 0.00 | 0.00 | 0.00 | 31 | 1011.3 |
| 20260503003111 | 76 | 182 | 0.9 | 3.5 | 0.00 | 0.00 | 0.00 | 32 | 1011.3 |
| 20260503002503 | 76 | 198 | 2.6 | 4.3 | 0.00 | 0.00 | 0.00 | 29 | 1011.4 |
| 20260503002103 | 76 | 215 | 1.7 | 4.3 | 0.00 | 0.00 | 0.00 | 29 | 1011.4 |
| 20260503001504 | 76 | 198 | 2.6 | 4.3 | 0.00 | 0.00 | 0.00 | 30 | 1011.4 |
| 20260503001106 | 76 | 188 | 0.9 | 5.2 | 0.00 | 0.00 | 0.00 | 32 | 1011.3 |
| 20260503000602 | 77 | 223 | 2.6 | 5.2 | 0.00 | 0.00 | 0.00 | 27 | 1011.3 |
| 20260503000002 | 77 | 244 | 0.9 | 2.6 | 0.00 | 0.00 | 0.00 | 27 | 1011.5 |
| 20260502235507 | 77 | 42 | 0.9 | 2.6 | 0.00 | 0.00 | 0.00 | 31 | 1011.5 |
| 20260502235102 | 77 | 176 | 0.0 | 1.7 | 0.00 | 0.00 | 0.00 | 30 | 1011.5 |
| 20260502234501 | 76 | 215 | 0.0 | 2.6 | 0.00 | 0.00 | 0.00 | 30 | 1011.7 |
| 20260502234002 | 76 | 90 | 0.9 | 2.6 | 0.00 | 0.00 | 0.00 | 33 | 1011.7 |
| 20260502233506 | 77 | 264 | 0.9 | 2.6 | 0.00 | 0.00 | 0.00 | 30 | 1011.7 |
| 20260502233103 | 77 | 212 | 0.9 | 3.5 | 0.00 | 0.00 | 0.00 | 29 | 1011.7 |
| 20260502232502 | 76 | 200 | 1.7 | 3.5 | 0.00 | 0.00 | 0.00 | 27 | 1011.9 |
| 20260502232001 | 76 | 188 | 1.7 | 5.2 | 0.00 | 0.00 | 0.00 | 28 | 1011.9 |
| 20260502231503 | 76 | 217 | 2.6 | 5.2 | 0.00 | 0.00 | 0.00 | 30 | 1011.9 |
| 20260502231007 | 76 | 177 | 0.9 | 4.3 | 0.00 | 0.00 | 0.00 | 32 | 1011.9 |
| 20260502230602 | 76 | 157 | 2.6 | 4.3 | 0.00 | 0.00 | 0.00 | 29 | 1011.9 |
| 20260502225507 | 77 | 221 | 1.7 | 4.3 | 0.00 | 0.00 | 0.00 | 27 | 1012.1 |
| 20260502225005 | 76 | 200 | 1.7 | 3.5 | 0.00 | 0.00 | 0.00 | 27 | 1012.2 |
| 20260502224507 | 76 | 189 | 1.7 | 3.5 | 0.00 | 0.00 | 0.00 | 27 | 1012.2 |
| 20260502224007 | 76 | 324 | 1.7 | 6.1 | 0.00 | 0.00 | 0.00 | 29 | 1012.3 |
| 20260502223602 | 75 | 313 | 0.9 | 6.1 | 0.00 | 0.00 | 0.00 | 30 | 1012.3 |
| 20260502223004 | 76 | 59 | 1.7 | 5.2 | 0.00 | 0.00 | 0.00 | 27 | 1012.5 |
| 20260502222506 | 76 | 71 | 0.9 | 5.2 | 0.00 | 0.00 | 0.00 | 27 | 1012.5 |
| 20260502222105 | 76 | 178 | 1.7 | 4.3 | 0.00 | 0.00 | 0.00 | 27 | 1012.5 |
| 20260502221502 | 77 | 180 | 1.7 | 4.3 | 0.00 | 0.00 | 0.00 | 28 | 1012.6 |
| 20260502221001 | 77 | 201 | 1.7 | 4.3 | 0.00 | 0.00 | 0.00 | 27 | 1012.7 |
| 20260502220507 | 77 | 183 | 0.9 | 2.6 | 0.00 | 0.00 | 0.00 | 29 | 1012.6 |
| 20260502220007 | 75 | 31 | 0.0 | 3.5 | 0.00 | 0.00 | 0.00 | 28 | 1012.7 |
| 20260502215603 | 75 | 251 | 1.7 | 5.2 | 0.00 | 0.00 | 0.00 | 32 | 1012.7 |
| 20260502215001 | 75 | 163 | 1.7 | 7.8 | 0.00 | 0.00 | 0.00 | 34 | 1012.8 |
| 20260502214505 | 75 | 110 | 2.6 | 7.0 | 0.00 | 0.00 | 0.00 | 31 | 1012.9 |
| 20260502214103 | 75 | 155 | 3.5 | 6.1 | 0.00 | 0.00 | 0.00 | 30 | 1012.9 |
| 20260502213502 | 75 | 185 | 2.6 | 5.2 | 0.00 | 0.00 | 0.00 | 29 | 1013.0 |
| 20260502213007 | 74 | 155 | 2.6 | 6.1 | 0.00 | 0.00 | 0.00 | 31 | 1012.9 |
| 20260502212603 | 74 | 84 | 1.7 | 6.1 | 0.00 | 0.00 | 0.00 | 33 | 1013.0 |
| 20260502212002 | 75 | 229 | 1.7 | 7.0 | 0.00 | 0.00 | 0.00 | 30 | 1013.1 |
| 20260502211513 | 75 | 160 | 3.5 | 6.1 | 0.00 | 0.00 | 0.00 | 30 | 1013.2 |
| 20260502211103 | 75 | 192 | 1.7 | 6.1 | 0.00 | 0.00 | 0.00 | 33 | 1013.2 |
| 20260502210603 | 74 | 188 | 3.5 | 6.1 | 0.00 | 0.00 | 0.00 | 33 | 1013.3 |
| 20260502210004 | 74 | 109 | 2.6 | 6.1 | 0.00 | 0.00 | 0.00 | 28 | 1013.3 |
| 20260502205509 | 73 | 77 | 1.7 | 7.8 | 0.00 | 0.00 | 0.00 | 31 | 1013.3 |
| 20260502205002 | 73 | 113 | 4.3 | 7.8 | 0.00 | 0.00 | 0.00 | 29 | 1013.4 |
| 20260502204505 | 74 | 175 | 1.7 | 5.2 | 0.00 | 0.00 | 0.00 | 29 | 1013.5 |
| 20260502204102 | 74 | 181 | 1.7 | 5.2 | 0.00 | 0.00 | 0.00 | 31 | 1013.4 |
| 20260502203502 | 73 | 157 | 1.7 | 4.3 | 0.00 | 0.00 | 0.00 | 35 | 1013.5 |
| 20260502203007 | 73 | 142 | 2.6 | 4.3 | 0.00 | 0.00 | 0.00 | 31 | 1013.6 |
| 20260502202601 | 72 | 113 | 1.7 | 4.3 | 0.00 | 0.00 | 0.00 | 34 | 1013.6 |
| 20260502202002 | 72 | 112 | 2.6 | 6.1 | 0.00 | 0.00 | 0.00 | 31 | 1013.7 |
| 20260502201511 | 72 | 101 | 0.9 | 3.5 | 0.00 | 0.00 | 0.00 | 37 | 1013.7 |
| 20260502200502 | 72 | 139 | 1.7 | 6.1 | 0.00 | 0.00 | 0.00 | 32 | 1013.9 |
| 20260502200006 | 72 | 161 | 1.7 | 6.1 | 0.00 | 0.00 | 0.00 | 35 | 1013.9 |
| 20260502195603 | 72 | 142 | 1.7 | 5.2 | 0.00 | 0.00 | 0.00 | 39 | 1014.0 |
| 20260502195102 | 72 | 57 | 1.7 | 7.0 | 0.00 | 0.00 | 0.00 | 36 | 1014.0 |
| 20260502194604 | 73 | 122 | 3.5 | 7.0 | 0.00 | 0.00 | 0.00 | 35 | 1014.0 |
| 20260502194002 | 72 | 178 | 2.6 | 5.2 | 0.00 | 0.00 | 0.00 | 35 | 1014.1 |
| 20260502193502 | 72 | 199 | 2.6 | 5.2 | 0.00 | 0.00 | 0.00 | 37 | 1014.1 |
| 20260502193006 | 71 | 80 | 1.7 | 5.2 | 0.00 | 0.00 | 0.00 | 36 | 1014.2 |
| 20260502192603 | 71 | 159 | 1.7 | 5.2 | 0.00 | 0.00 | 0.00 | 40 | 1014.2 |
| 20260502192002 | 71 | 129 | 1.7 | 5.2 | 0.00 | 0.00 | 0.00 | 35 | 1014.3 |
| 20260502191507 | 71 | 160 | 2.6 | 6.1 | 0.00 | 0.00 | 0.00 | 36 | 1014.3 |
| 20260502191102 | 71 | 101 | 2.6 | 6.1 | 0.00 | 0.00 | 0.00 | 40 | 1014.4 |
| 20260502190602 | 71 | 186 | 2.6 | 5.2 | 0.00 | 0.00 | 0.00 | 36 | 1014.4 |
| 20260502190009 | 70 | 136 | 1.7 | 6.1 | 0.00 | 0.00 | 0.00 | 41 | 1014.5 |
| 20260502185502 | 69 | 172 | 2.6 | 7.8 | 0.00 | 0.00 | 0.00 | 36 | 1014.4 |
| 20260502185002 | 70 | 144 | 5.2 | 7.8 | 0.00 | 0.00 | 0.00 | 41 | 1014.5 |
| 20260502184506 | 70 | 58 | 1.7 | 5.2 | 0.00 | 0.00 | 0.00 | 38 | 1014.6 |
| 20260502184102 | 70 | 193 | 1.7 | 7.0 | 0.00 | 0.00 | 0.00 | 39 | 1014.7 |
| 20260502183502 | 70 | 159 | 3.5 | 7.0 | 0.00 | 0.00 | 0.00 | 34 | 1014.7 |
| 20260502183005 | 70 | 200 | 0.9 | 6.1 | 0.00 | 0.00 | 0.00 | 37 | 1014.7 |
| 20260502182506 | 69 | 192 | 2.6 | 6.1 | 0.00 | 0.00 | 0.00 | 38 | 1014.8 |
| 20260502181602 | 68 | 126 | 3.5 | 7.8 | 0.00 | 0.00 | 0.00 | 34 | 1014.8 |
| 20260502181102 | 68 | 133 | 1.7 | 7.8 | 0.00 | 0.00 | 0.00 | 44 | 1014.8 |
| 20260502180502 | 68 | 125 | 3.5 | 7.0 | 0.00 | 0.00 | 0.00 | 39 | 1014.8 |
| 20260502170502 | 64 | 119 | 2.6 | 7.0 | 0.00 | 0.00 | 0.00 | 46 | 1015.0 |
| 20260502164002 | 64 | 149 | 2.6 | 6.1 | 0.00 | 0.00 | 0.00 | 46 | 1015.2 |
| 20260502163503 | 62 | 131 | 2.6 | 6.1 | 0.00 | 0.00 | 0.00 | 48 | 1015.1 |
| 20260502163116 | 62 | 103 | 2.6 | 6.1 | 0.00 | 0.00 | 0.00 | 48 | 1015.2 |
| 20260502162502 | 62 | 103 | 2.6 | 6.1 | 0.00 | 0.00 | 0.00 | 48 | 1015.2 |
| 20260502162101 | 62 | 104 | 1.7 | 6.1 | 0.00 | 0.00 | 0.00 | 48 | 1015.2 |
| 20260502161502 | 61 | 86 | 1.7 | 6.1 | 0.00 | 0.00 | 0.00 | 50 | 1015.2 |
| 20260502161101 | 61 | 112 | 2.6 | 7.0 | 0.00 | 0.00 | 0.00 | 46 | 1015.3 |
| 20260502160504 | 62 | 131 | 1.7 | 6.1 | 0.00 | 0.00 | 0.00 | 50 | 1015.3 |
| 20260502160108 | 61 | 101 | 0.9 | 6.1 | 0.00 | 0.00 | 0.00 | 52 | 1015.4 |
| 20260502152105 | 58 | 72 | 0.9 | 3.5 | 0.00 | 0.00 | 0.00 | 61 | 1015.3 |
| 20260502151504 | 58 | 121 | 1.7 | 3.5 | 0.00 | 0.00 | 0.00 | 58 | 1015.3 |
| 20260502151101 | 59 | 111 | 1.7 | 3.5 | 0.00 | 0.00 | 0.00 | 58 | 1015.3 |
| 20260502150505 | 58 | 100 | 0.0 | 1.7 | 0.00 | 0.00 | 0.00 | 61 | 1015.3 |
| 20260502130507 | 41 | 9 | 0.0 | 0.9 | 0.00 | 0.00 | 0.00 | 89 | 1015.1 |
| 20260502130105 | 41 | 5 | 0.0 | 0.9 | 0.00 | 0.00 | 0.00 | 90 | 1015.1 |
| 20260502123503 | 40 | 5 | 0.9 | 1.7 | 0.00 | 0.00 | 0.00 | 90 | 1015.0 |
| 20260502123012 | 40 | 5 | 0.9 | 1.7 | 0.00 | 0.00 | 0.00 | 90 | 1015.0 |
| 20260502122503 | 40 | 13 | 0.9 | 1.7 | 0.00 | 0.00 | 0.00 | 90 | 1015.0 |
| 20260502122005 | 40 | 17 | 0.0 | 1.7 | 0.00 | 0.00 | 0.00 | 90 | 1015.0 |
| 20260502121602 | 40 | 5 | 0.0 | 2.6 | 0.00 | 0.00 | 0.00 | 90 | 1015.0 |
| 20260502121002 | 40 | 11 | 1.7 | 2.6 | 0.00 | 0.00 | 0.00 | 90 | 1015.1 |
| 20260502120505 | 40 | 12 | 0.0 | 1.7 | 0.00 | 0.00 | 0.00 | 90 | 1015.1 |
| 20260502120113 | 40 | 12 | 0.0 | 1.7 | 0.00 | 0.00 | 0.00 | 90 | 1015.1 |
| 20260502115507 | 41 | 12 | 0.0 | 0.9 | 0.00 | 0.00 | 0.00 | 90 | 1015.1 |
| 20260502115101 | 41 | 12 | 0.0 | 0.9 | 0.00 | 0.00 | 0.00 | 90 | 1015.2 |
| 20260502114637 | 41 | 12 | 0.0 | 0.9 | 0.00 | 0.00 | 0.00 | 90 | 1015.1 |
| 20260502114003 | 41 | 12 | 0.0 | 0.9 | 0.00 | 0.00 | 0.00 | 90 | 1015.1 |
| 20260502113503 | 41 | 12 | 0.0 | 1.7 | 0.00 | 0.00 | 0.00 | 90 | 1015.1 |
| 20260502113007 | 41 | 12 | 0.0 | 1.7 | 0.00 | 0.00 | 0.00 | 90 | 1015.1 |
| 20260502112503 | 41 | 12 | 0.0 | 1.7 | 0.00 | 0.00 | 0.00 | 90 | 1015.1 |
| 20260502112008 | 41 | 12 | 0.0 | 1.7 | 0.00 | 0.00 | 0.00 | 90 | 1015.1 |
| 20260502111502 | 41 | 12 | 0.9 | 1.7 | 0.00 | 0.00 | 0.00 | 89 | 1015.1 |
| 20260502111005 | 41 | 12 | 0.0 | 0.9 | 0.00 | 0.00 | 0.00 | 90 | 1015.1 |
| 20260502110502 | 41 | 12 | 0.0 | 1.7 | 0.00 | 0.00 | 0.00 | 89 | 1015.2 |
| 20260502110014 | 41 | 12 | 0.9 | 1.7 | 0.00 | 0.00 | 0.00 | 90 | 1015.2 |
| 20260502105603 | 41 | 12 | 0.9 | 2.6 | 0.00 | 0.00 | 0.00 | 90 | 1015.2 |
| 20260502105006 | 41 | 14 | 0.9 | 1.7 | 0.00 | 0.00 | 0.00 | 90 | 1015.2 |
| 20260502104502 | 41 | 9 | 0.9 | 1.7 | 0.00 | 0.00 | 0.00 | 90 | 1015.2 |
| 20260502104006 | 41 | 355 | 0.0 | 1.7 | 0.00 | 0.00 | 0.00 | 90 | 1015.1 |
| 20260502103602 | 41 | 355 | 0.9 | 1.7 | 0.00 | 0.00 | 0.00 | 90 | 1015.1 |
| 20260502103003 | 41 | 355 | 0.9 | 1.7 | 0.00 | 0.00 | 0.00 | 90 | 1015.1 |
| 20260502102602 | 41 | 355 | 0.0 | 1.7 | 0.00 | 0.00 | 0.00 | 89 | 1015.2 |
| 20260502102002 | 41 | 355 | 0.0 | 0.9 | 0.00 | 0.00 | 0.00 | 89 | 1015.2 |
| 20260502101506 | 41 | 355 | 0.0 | 0.9 | 0.00 | 0.00 | 0.00 | 89 | 1015.1 |
| 20260502101105 | 41 | 355 | 0.0 | 0.0 | 0.00 | 0.00 | 0.00 | 89 | 1015.1 |
| 20260502100502 | 42 | 355 | 0.0 | 0.9 | 0.00 | 0.00 | 0.00 | 88 | 1015.0 |
| 20260502091503 | 42 | 355 | 0.0 | 1.7 | 0.00 | 0.00 | 0.00 | 88 | 1015.1 |
| 20260502091007 | 42 | 355 | 0.0 | 1.7 | 0.00 | 0.00 | 0.00 | 88 | 1015.1 |
| 20260502090602 | 42 | 355 | 0.0 | 1.7 | 0.00 | 0.00 | 0.00 | 88 | 1015.1 |
| 20260502071002 | 44 | 351 | 0.9 | 1.7 | 0.00 | 0.00 | 0.00 | 86 | 1015.0 |
| 20260502070506 | 44 | 351 | 0.0 | 0.9 | 0.00 | 0.00 | 0.00 | 86 | 1015.1 |
| 20260502070110 | 44 | 351 | 0.0 | 0.9 | 0.00 | 0.00 | 0.00 | 86 | 1015.0 |
| 20260502065504 | 44 | 351 | 0.0 | 0.9 | 0.00 | 0.00 | 0.00 | 87 | 1015.1 |
| 20260502065005 | 44 | 351 | 0.0 | 0.9 | 0.00 | 0.00 | 0.00 | 87 | 1015.0 |
| 20260502064623 | 44 | 351 | 0.0 | 1.7 | 0.00 | 0.00 | 0.00 | 87 | 1015.1 |
| 20260502064003 | 44 | 351 | 0.0 | 1.7 | 0.00 | 0.00 | 0.00 | 86 | 1015.1 |
| 20260502063602 | 44 | 355 | 0.9 | 1.7 | 0.00 | 0.00 | 0.00 | 86 | 1015.1 |
| 20260502063003 | 44 | 355 | 0.0 | 0.9 | 0.00 | 0.00 | 0.00 | 86 | 1015.1 |
| 20260502062502 | 45 | 355 | 0.0 | 1.7 | 0.00 | 0.00 | 0.00 | 85 | 1015.1 |
| 20260502062002 | 45 | 355 | 0.0 | 1.7 | 0.00 | 0.00 | 0.00 | 85 | 1015.1 |
| 20260502061505 | 45 | 355 | 0.9 | 1.7 | 0.00 | 0.00 | 0.00 | 85 | 1015.0 |
| 20260502061102 | 45 | 333 | 0.0 | 0.9 | 0.00 | 0.00 | 0.00 | 85 | 1015.1 |
| 20260502060503 | 46 | 333 | 0.0 | 0.9 | 0.00 | 0.00 | 0.00 | 85 | 1015.1 |
| 20260502060002 | 46 | 333 | 0.0 | 0.9 | 0.00 | 0.00 | 0.00 | 85 | 1015.1 |
| 20260502055505 | 46 | 333 | 0.0 | 1.7 | 0.00 | 0.00 | 0.00 | 84 | 1015.1 |
| 20260502055102 | 46 | 333 | 0.0 | 1.7 | 0.00 | 0.00 | 0.00 | 84 | 1015.2 |
| 20260502054508 | 46 | 333 | 0.0 | 1.7 | 0.00 | 0.00 | 0.00 | 84 | 1015.2 |
| 20260502054005 | 47 | 333 | 0.9 | 1.7 | 0.00 | 0.00 | 0.00 | 84 | 1015.2 |
| 20260502053511 | 47 | 333 | 0.9 | 1.7 | 0.00 | 0.00 | 0.00 | 83 | 1015.2 |
| 20260502053003 | 47 | 333 | 0.9 | 1.7 | 0.00 | 0.00 | 0.00 | 83 | 1015.2 |
| 20260502052505 | 47 | 333 | 0.9 | 2.6 | 0.00 | 0.00 | 0.00 | 83 | 1015.2 |
| 20260502052105 | 48 | 342 | 0.9 | 2.6 | 0.00 | 0.00 | 0.00 | 83 | 1015.2 |
| 20260502051502 | 48 | 355 | 0.9 | 1.7 | 0.00 | 0.00 | 0.00 | 83 | 1015.2 |